Location: Newark
(42.8481°N, 0.4872°E)
Time: 17:18:32
(UTC+00:00)

A-11 Canister half - Pass Details

Date: 28 October 2020
Orbit: 1525 x 1683 km, 47.3° (Epoch: 22 November)

Event Time Altitude Azimuth Distance (km) Brightness Sun altitude
Rises 22:33:56 0° 289° (WNW) 4,678 11.9 -57.2°
Enters shadow 22:37:29 - 275° (W) 3,858 11.3 -57.6°
Reaches altitude 10° 22:38:21 10° 271° (W) 3,693 - -57.6°
Maximum altitude 22:43:43 17° 235° (SW) 3,173 - -58.1°
Drops below altitude 10° 22:49:08 10° 199° (SSW) 3,715 - -58.5°
Sets 22:53:38 0° 180° (S) 4,718 - -58.9°
